This is the latest recevied weather packets stored in our database for station/object N0QV. If no packets are shown the sender has not sent any weather packets the latest 10 day(s).
| Time | Temp. | Humidity | Pressure | Rain* | Wind** | Luminosity | Snow |
|---|---|---|---|---|---|---|---|
| 1787841469 | 21.67° C | 75% | 1019.5 hPa | 0 mm | - | 319 W/m² | - |
| 1787841167 | 21.67° C | 75% | 1019.3 hPa | 0 mm | - | 327 W/m² | - |
| 1787840863 | 21.67° C | 73% | 1019.4 hPa | 0 mm | - | 299 W/m² | - |
| 1787840559 | 21.11° C | 77% | 1019.4 hPa | 0 mm | - | 288 W/m² | - |
| 1787840259 | 20.56° C | 77% | 1019.3 hPa | 0 mm | - | 267 W/m² | - |
| 1787839958 | 20.56° C | 77% | 1019.5 hPa | 0 mm | - | 187 W/m² | - |
| 1787839653 | 20.56° C | 78% | 1019.5 hPa | 0 mm | - | 170 W/m² | - |
| 1787839354 | 20° C | 79% | 1019.7 hPa | 0 mm | - | 166 W/m² | - |
| 1787839048 | 20° C | 79% | 1019.6 hPa | 0 mm | - | 130 W/m² | - |
| 1787838747 | 19.44° C | 81% | 1019.4 hPa | 0 mm | - | 208 W/m² | - |
| 1787838446 | 18.89° C | 82% | 1019.5 hPa | 0 mm | - | 146 W/m² | - |
| 1787838146 | 18.33° C | 83% | 1019.4 hPa | 0 mm | - | 168 W/m² | - |
| 1787837841 | 18.33° C | 84% | 1019.6 hPa | 0 mm | - | 115 W/m² | - |
| 1787837535 | 17.78° C | 85% | 1019.4 hPa | 0 mm | - | 106 W/m² | - |
| 1787837235 | 17.78° C | 85% | 1019.5 hPa | 0 mm | - | 101 W/m² | - |
| 1787836934 | 17.78° C | 86% | 1019.4 hPa | 0 mm | - | 98 W/m² | - |
| 1787836629 | 17.78° C | 87% | 1019.3 hPa | 0 mm | - | 88 W/m² | - |
| 1787836329 | 17.22° C | 88% | 1019.3 hPa | 0 mm | - | 82 W/m² | - |
| 1787836025 | 17.22° C | 90% | 1019.4 hPa | 0 mm | - | 78 W/m² | - |
| 1787835721 | 16.67° C | 92% | 1019.3 hPa | 0 mm | - | 72 W/m² | - |
| 1787835415 | 16.67° C | 93% | 1019.2 hPa | 0 mm | - | 66 W/m² | - |
| 1787835110 | 16.11° C | 94% | 1018.9 hPa | 0 mm | - | 61 W/m² | - |
| 1787834808 | 16.11° C | 94% | 1019 hPa | 0 mm | - | 58 W/m² | - |
| 1787834503 | 16.11° C | 94% | 1019.2 hPa | 0 mm | - | 52 W/m² | - |
| 1787834199 | 16.11° C | 94% | 1018.9 hPa | 0 mm | - | 47 W/m² | - |
* Rain latest hour (hover to see other rain measurements)
** Current wind speed in m/s (hover to see current wind gust speed)